Location: Unspecified
(0.0000°N, 0.0000°E)
Time: 23:53:09
(UTC+00:00)

A-11 Canister half - Pass Details

Date: 11 February 2023
Orbit: 1526 x 1682 km, 47.3° (Epoch: 29 March)

Event Time Altitude Azimuth Distance (km) Brightness Sun altitude
Rises 14:36:01 0° 281° (WNW) 4,831 12.1 52.2°
Reaches altitude 10° 14:40:39 10° 263° (W) 3,875 11.9 51.2°
Maximum altitude 14:46:33 17° 226° (SW) 3,361 11.8 49.8°
Drops below altitude 10° 14:52:33 10° 188° (S) 3,932 11.6 48.4°
Sets 14:57:24 0° 169° (S) 4,932 11.7 47.3°
